Location: Cahas Mountain Overlook
(37.0833°N, 80.1000°W)
Time: 09:23:07
(UTC-05:00)

ARIANE 6 FM1 Upper Stage - Pass Details

Date: 20 January 2026
Orbit: 522 x 609 km, 62.0° (Epoch: 13 February)

Event Time Altitude Azimuth Distance (km) Brightness Sun altitude
Rises 18:54:21 0° 200° (SSW) 2,724 6.6 -16.3°
Reaches altitude 10° 18:56:38 10° 194° (SSW) 1,818 5.6 -16.7°
Maximum altitude 19:00:33 48° 120° (ESE) 715 2.8 -17.5°
Enters shadow 19:01:26 40° 81° (E) 804 2.9 -17.6°
